CZ-6A DEB, 54921

Orbit data source: Space-Track

CZ-6A DEB, 54921 is space debris in SSO originally from a launch on Fri, 11 Nov 2022 UTC launched from the Taiyaun Space Center, China (TSC). Debris objects in space refer to the collection of defunct objects orbiting the Earth. Examples of debris include non-operational satellites, rocket bodies, and fragments generated from explosions, collisions, or faulty payload assembly.

Loading next visibility...
Identifier
54921, 2022-151RJ
Orbit
SSO
Country
Flag of CNCN / PRC
Related business
Manufacturer
SAST
Mission
Spacecraft
Bus & Motor
Unknown
Mass
Unknown
Launch date (UTC)
2022-11-11 (3 years ago)
Launch vehicle
Unknown
Launch site
Taiyaun Space Center, China (TSC)
Object type
Payload
Rocket body
Debris
Shape & HBR
Unknown shape, 0.1 m
Radar Cross Section
Small (<0.1 m²)

Expand to show TLE details & history
Last TLE update: 11 hours ago

TLE from 11 hours ago
0 CZ-6A DEB
1 54921U 22151RJ  25352.61169416  .00000694  00000-0  19634-3 0  9998
2 54921  98.5662  24.3864 0119816 136.3620 224.7122 14.44713495159639
Epoch: 2025-12-18T14:40Z
TLE epoch observation values (Epoch: 2025-12-18T14:40:50.375Z)
Latitude
-0.00004°
Longitude
76.7118°
Altitude
807.068 km
Speed
7.418 km/s
True Right ascension
01h 37m 32s
True Declination
0° 00' 00"
Sunlit
Object was in daylight at epoch
Visualization orbit readout
Latitude
Unknown
Longitude
Unknown
Altitude
Unknown
Speed
Unknown
Apparent Right ascension
Unknown
Apparent Declination
Unknown
Sunlit
N/A
Visualization observer readout
Local Sidereal Time
00:37:40
Azimuth
Unknown
Elevation
Unknown
Doppler factor
Unknown
Orbital elements
Apogee altitude
825.373 km
Perigee altitude
654.798 km
Semi-major axis
7,118.223 km
Eccentricity
0.01198
Inclination
98.5662°
RAAN
24.3864°
Arg. of periapsis
136.362°
True anomaly
223.75646°
Mean anomaly
224.7122°
Eccentric anomaly
224.23331°
Mean motion
3.61398 °/min
Orbital period
99.61 mins
BSTAR
0.00019634
Loading maneuver chart data...
Computing Atmospheric mass density...
Loading historical data...
Loading historical data...
Loading historical data...
Loading historical data...
Loading historical data...
Loading historical data...
Loading historical data...

Documentation

Showing up to 5 results
|